x

9410840 - Santa Monica Pier (icac1) Weather Station

7:54 - Sun 26th Feb 2017 All times are PST. -8 hours from GMT.

  • Wind
    7mph, 10mph gusts
  • Sea Temp 57°f
  • Aire Temp 49°f
  • Sea Pressure 1016.2mb
  • 9410840 - Santa Monica Pier
  • 9410840 - Santa Monica Pier

More Historic Weather Station data

Upgrade to MSW Pro to gain access to the past 30 days of data for over 8000 Wavebouys and Weather Stations around the globe.

Join Pro

Comparision Forecast

View Surf forecast
   
dom 02/26 7:54 7 10 mph 1016.2mb 57f 49f
7:48 9 11 mph 1016.1mb 57f 49f
7:42 7 11 mph 1016.1mb 57f 49f
7:36 8 11 mph 1016.1mb 57f 49f
7:30 7 10 mph 1016mb 57f 49f
7:24 7 10 mph 1016mb 57f 49f
7:18 6 9 mph 1015.9mb 57f 49f
7:12 7 9 mph 1015.8mb 57f 48f
7:06 7 9 mph 1015.8mb 57f 48f
7:00 6 9 mph 1015.8mb 57f 48f
6:54 6 9 mph 1015.9mb 57f 48f
6:48 6 7 mph 1015.9mb 57f 48f
6:42 5 8 mph 1016mb 57f 48f
6:36 7 8 mph 1016mb 57f 48f
6:30 7 11 mph 1016mb 57f 49f
6:24 7 9 mph 1016mb 57f 48f
6:18 6 10 mph 1015.9mb 57f 48f
6:12 6 9 mph 1015.7mb 57f 48f
6:06 6 7 mph 1015.9mb 57f 48f
6:00 5 10 mph 1015.8mb 57f 48f
5:54 7 9 mph 1015.6mb 57f 48f
5:48 6 8 mph - - -
5:42 7 8 mph 1015.4mb 57f 49f
5:36 3 7 mph 1015.9mb 57f 49f
5:30 5 8 mph 1015.8mb 57f 48f
5:24 7 11 mph 1015.6mb 57f 48f
5:18 10 11 mph 1015.3mb 57f 48f
5:12 7 9 mph 1015.7mb 57f 48f
5:06 7 10 mph 1015.7mb 57f 48f
5:00 9 11 mph 1015.6mb 57f 48f
4:54 9 10 mph 1015.6mb 57f 49f
4:48 5 10 mph 1015.8mb 57f 49f
4:42 7 11 mph 1015.7mb 57f 49f
4:36 10 11 mph 1015.6mb 57f 48f
4:30 8 11 mph 1015.6mb 57f 49f
4:24 8 11 mph 1015.7mb 57f 49f
4:18 8 10 mph 1015.7mb 57f 49f
4:12 9 10 mph 1015.6mb 57f 49f
4:06 8 10 mph 1015.6mb 57f 49f
4:00 7 10 mph 1015.8mb 57f 49f
3:54 7 10 mph 1016mb 57f 49f
3:48 8 10 mph 1016mb 57f 50f
3:42 6 9 mph 1016mb 57f 50f
3:36 7 8 mph 1015.9mb 57f 50f
3:30 6 9 mph 1015.8mb 57f 50f
3:24 8 10 mph 1015.8mb 57f 50f
3:18 6 10 mph 1015.7mb 57f 51f
3:12 6 8 mph 1016mb 57f 51f
3:06 7 8 mph 1016mb 57f 51f
3:00 6 7 mph 1015.9mb 57f 51f
2:54 5 6 mph 1016mb 57f 51f
2:48 2 5 mph 1015.9mb 57f 51f
2:42 2 3 mph 1016mb 57f 51f
2:36 2 3 mph 1016mb 57f 51f
2:30  -  2 mph 1015.9mb 57f 51f
2:24 1 2 mph 1016.1mb 57f 51f
2:18 2 3 mph 1016mb 57f 51f
2:12 2 3 mph 1016mb 57f 51f
2:06 3 5 mph 1015.9mb 57f 50f
2:00 3 5 mph 1015.9mb 57f 50f
1:54 3 5 mph 1016.1mb 57f 51f
1:48 3
mph
1016.4mb 57f 51f
1:42 2 3 mph 1016.2mb 58f 51f
1:36 2 3 mph 1016.3mb 58f 51f
1:30 1 2 mph 1016.2mb 58f 51f
1:24  -  3 mph 1016.2mb 58f 51f
1:18 2 3 mph 1016.4mb 58f 50f
1:12 2 5 mph 1016.4mb 58f 51f
1:06 2 3 mph 1016.1mb 58f 51f
1:00 3 5 mph 1016.4mb 58f 50f
12:54 2 5 mph 1016.4mb 58f 51f
12:48 5 7 mph 1016mb 58f 51f
12:42 6 7 mph 1016mb 58f 50f
12:36 3 5 mph 1016.5mb 58f 50f
12:30 3 5 mph 1016.7mb 58f 50f
12:24 3
mph
1016.6mb 58f 50f
12:18 1 2 mph 1016.7mb 58f 50f
12:12 2 5 mph 1016.6mb 58f 50f
12:06 3 5 mph 1016.5mb 58f 50f
12:00 1 2 mph 1016.4mb 58f 50f
sáb 02/25 11:54 1 2 mph 1016.6mb 58f 50f
11:48 1 2 mph 1016.5mb 58f 50f
11:42 1 2 mph 1016.5mb 58f 50f
11:36 2 6 mph 1016.6mb 58f 51f
11:30 5 6 mph 1016.7mb 58f 51f
11:24 3 5 mph 1016.7mb 58f 51f
11:18 5 6 mph 1016.4mb 58f 51f
11:12 3 7 mph 1016.6mb 58f 51f
11:06 2
mph
1016.5mb 58f 51f
11:00 1 5 mph 1016.5mb 58f 51f
10:54 3
mph
1016.5mb 58f 52f
10:48  -  2 mph - - -
10:42 2
mph
1016.7mb 58f 52f
10:36 1 3 mph 1016.6mb 58f 52f
10:30 3 5 mph 1016.5mb 58f 52f
10:24 2 3 mph 1016.7mb 58f 52f
10:18 3 5 mph 1016.7mb 58f 52f
10:12 2 5 mph 1016.7mb 58f 53f
10:06 3 5 mph 1016.6mb 58f 53f
10:00 3 5 mph 1016.8mb 58f 53f
9:54 5 7 mph 1016.7mb 58f 53f
9:48 5 6 mph 1016.5mb 58f 53f
9:42 5 6 mph 1016.7mb 58f 53f
9:36 3 5 mph 1016.7mb 58f 53f
9:30 5 6 mph 1016.9mb 58f 53f
9:24 6
mph
1017mb 58f 53f
9:18 6
mph
1017mb 58f 53f
9:12 5 6 mph 1017mb 58f 54f
9:06 5 7 mph 1017mb 58f 54f
9:00 6 8 mph 1017mb 58f 54f
8:54 6 9 mph 1017mb 58f 54f
8:48 7 8 mph - - -
8:42 7 8 mph 1016.7mb 58f 54f
8:36 7 9 mph 1016.8mb 58f 54f
8:30 7 9 mph 1016.8mb 58f 54f
8:24 6 8 mph 1016.7mb 58f 54f
8:18 3 6 mph 1016.7mb 58f 54f
8:12 6 7 mph 1016.8mb 58f 54f
8:06 7 9 mph 1016.6mb 58f 54f
8:00 7 8 mph 1016.7mb 58f 54f
7:54 8 9 mph 1016.7mb 58f 55f
7:48 8 9 mph 1016.7mb 58f 54f
7:42 10 11 mph 1016.8mb 58f 54f
7:36 11 14 mph 1016.8mb 58f 54f
7:30 11 15 mph 1016.7mb 58f 54f
7:24 15 16 mph 1016.8mb 58f 54f
7:18 14 16 mph - - -
7:12 15 17 mph 1016.5mb 58f 54f
7:06 15 20 mph 1016.7mb 58f 54f
7:00 18 22 mph 1016.9mb 58f 54f
6:54 18 21 mph 1016.8mb 58f 54f
6:48 16 17 mph 1016.8mb 58f 55f
6:42 15 16 mph 1016.6mb 58f 55f
6:36 14 15 mph 1016.4mb 58f 55f
6:30 10 11 mph 1016.1mb 58f 55f
6:24 9 13 mph 1015.7mb 58f 54f
6:18 10 11 mph - - -
6:12 9 10 mph 1015.9mb 58f 54f
6:06 8 9 mph 1015.9mb 58f 54f
6:00 8 9 mph 1015.9mb 58f 55f
5:54 6 7 mph 1016.1mb 58f 55f
5:48 5 6 mph - - -
5:42 3 5 mph 1016.3mb 58f 55f
5:36 3 6 mph 1016.5mb 58f 55f
5:30 5 6 mph 1016.6mb 58f 55f
5:24 3 5 mph 1016.6mb 58f 55f
5:18 2 3 mph - - -
5:12 2 5 mph 1016.5mb 58f 55f
5:06 3 5 mph 1016.4mb 58f 55f
5:00 3 5 mph 1016.5mb 58f 55f
4:54 3
mph
1016.5mb 58f 55f
4:48 3
mph
- - -
4:42 2 3 mph 1016.6mb 58f 55f
4:36  -  3 mph 1016.6mb 58f 55f
4:30 2 3 mph 1016.5mb 58f 55f
4:24  -  3 mph 1016.6mb 58f 55f
4:18 2 5 mph - - -
4:12 3 5 mph 1016.8mb 58f 55f
4:06 2 5 mph 1016.9mb 58f 55f
4:00 2 3 mph 1016.9mb 58f 55f
3:54 3
mph
1017mb 58f 55f
3:48 2 3 mph - - -
3:42 3 5 mph 1016.8mb 58f 55f
3:36 3 6 mph 1016.9mb 58f 55f
3:30 5 6 mph 1017.1mb 58f 55f
3:24 3 6 mph 1017.3mb 58f 55f
3:18 5 7 mph - - -
3:12 6 7 mph 1017.6mb 58f 55f
3:06 6
mph
1017.5mb 58f 55f
3:00 6 8 mph 1017.6mb 58f 55f
2:54 6 7 mph 1017.7mb 58f 55f
2:48 6 7 mph 1017.7mb - -
2:42 6 7 mph 1017.7mb 58f 55f
2:36 6 8 mph 1017.8mb 58f 55f
2:30 7 8 mph 1017.7mb 58f 55f
2:24 7 8 mph 1017.8mb 58f 55f
2:18 7 8 mph - - -
2:12 8 9 mph 1017.9mb 58f 55f
2:06 9 10 mph 1018mb 58f 55f
2:00 9 11 mph 1018.1mb 58f 55f
1:54 9 10 mph 1018.1mb 58f 55f
1:48 9 10 mph - - -
1:42 10 11 mph 1018.3mb 58f 55f
1:36 10 11 mph 1018.4mb 58f 55f
1:30 9 10 mph 1018.6mb 58f 55f
1:24 8 10 mph 1018.4mb 58f 55f
1:18 8 10 mph 1018.6mb 58f 55f
1:12 9 10 mph 1018.7mb 58f 55f
1:00 10 11 mph 1018.9mb 57f 55f
12:54 10 13 mph 1019mb 57f 55f
12:48 11 13 mph 1019.2mb 57f 55f
12:42 10 11 mph 1019.3mb 57f 55f
12:36 8 9 mph 1018.8mb 57f 55f
12:30 8 9 mph 1019.1mb 57f 55f
12:24 8 9 mph 1019.2mb 57f 55f
12:18 8
mph
1019.3mb 57f 55f
12:12 7 8 mph 1019.4mb 57f 55f
12:06 6 8 mph 1019.3mb 57f 55f
12:00 6 8 mph 1019.5mb 57f 55f
11:54 7 8 mph 1019.5mb 57f 55f
11:48 8 9 mph 1019.7mb 57f 55f
11:42 8
mph
1019.6mb 57f 55f
11:36 6 7 mph 1019.5mb 57f 55f
11:30 6 8 mph 1019.5mb 57f 55f
11:24 7 8 mph 1019.7mb 57f 55f
11:18 7 8 mph 1019.8mb 57f 54f
11:12 7 8 mph 1019.8mb 57f 54f
11:06 7 8 mph 1019.9mb 57f 54f
11:00 7 9 mph 1020.1mb 57f 54f
10:54 7 8 mph 1020.3mb 57f 54f
10:48 6 7 mph 1020.2mb 57f 54f
10:42 6 7 mph 1020.3mb 57f 54f
10:36 7 8 mph 1020.5mb 57f 54f
10:30 7 8 mph 1020.5mb 57f 54f
10:24 6 7 mph 1020.4mb 57f 54f
10:18 7
mph
1020.5mb 57f 54f
10:12 6 7 mph 1020.8mb 57f 54f
10:06 6
mph
1020.7mb 57f 54f
10:00 6
mph
1020.5mb 57f 54f
9:54 5 6 mph 1020.5mb 57f 54f
9:48 5 6 mph - - -
9:42 5 6 mph 1020.7mb 57f 54f
9:36 5 6 mph 1020.8mb 57f 55f
9:30 5 6 mph 1020.9mb 57f 54f
9:24 2 5 mph 1020.9mb 57f 55f
9:18 3
mph
1020.9mb 57f 56f
9:12 3 6 mph 1020.9mb 57f 55f
9:06 3 5 mph 1020.8mb 57f 54f
9:00 5 7 mph 1020.8mb 57f 54f
8:54 5 7 mph 1020.9mb 57f 54f
8:48 6 7 mph 1020.9mb 57f 53f
8:42 7 8 mph 1020.8mb 57f 53f
8:36 5 8 mph 1020.8mb 57f 53f
8:30 6 8 mph 1020.8mb 57f 53f
8:24 5 7 mph 1020.8mb 57f 53f
8:18 5 8 mph 1020.9mb 57f 53f
8:12 7 9 mph 1020.9mb 57f 52f
8:06 8 10 mph 1020.9mb 57f 51f
8:00 7 10 mph 1020.9mb 57f 51f
7:54 8 10 mph 1021mb 57f 51f
7:48 8 10 mph - - -
7:42 7 10 mph 1020.9mb 57f 51f
7:36 7 9 mph 1020.7mb 57f 50f
7:30 8 11 mph 1020.5mb 57f 50f
7:24 9 11 mph 1020.5mb 57f 49f
7:18 9 10 mph 1020.5mb 57f 49f
7:12 9 10 mph 1020.4mb 57f 49f
7:06 8 10 mph 1020.3mb 57f 49f
7:00 9 11 mph 1020.2mb 57f 48f
6:54 10 11 mph 1020.1mb 57f 48f
6:48 9 10 mph 1020.1mb 57f 48f
6:42 9 10 mph 1020.1mb 57f 48f
6:36 9 10 mph 1020.1mb 57f 48f
6:30 9 10 mph 1020.1mb 57f 48f
6:24 9 10 mph 1020.1mb 57f 48f
6:18 9 10 mph 1020.1mb 57f 48f
6:12 9 10 mph 1020.2mb 57f 48f
6:06 9 10 mph 1020.2mb 57f 48f
6:00 9 10 mph 1020.2mb 57f 48f
5:54 9 10 mph 1020.2mb 57f 48f
5:48 9 10 mph 1020.3mb 57f 48f
5:42 9
mph
1020.2mb 57f 47f
5:36 9 10 mph 1020.2mb 57f 47f
5:30 9
mph
1020.4mb 57f 47f
5:24 8 9 mph 1020.4mb 57f 47f
5:18 7 8 mph 1020.4mb 57f 47f
5:12 6 7 mph 1020.3mb 57f 47f
5:06 6 7 mph 1020.3mb 57f 46f
5:00 1 3 mph 1020.3mb 57f 46f
4:54 2 5 mph 1020.3mb 57f 46f
4:48 3
mph
1020.3mb 57f 46f
4:42 2 5 mph 1020.3mb 57f 46f
4:36 3 5 mph 1020.2mb 57f 46f
4:30 2 5 mph 1020.3mb 57f 47f
4:24 1 3 mph 1020.3mb 57f 47f
4:18 3 5 mph 1020.2mb 57f 47f
4:12 2 5 mph 1020.2mb 57f 47f
4:06 3 5 mph 1020.1mb 57f 47f
4:00 5 6 mph 1020.1mb 57f 47f
3:54 6 7 mph 1020.2mb 57f 48f
3:48 6
mph
1020.2mb 57f 47f
3:42 3 6 mph 1020.3mb 57f 48f
3:36 6 7 mph 1020.3mb 57f 48f
3:30 6 7 mph 1020.4mb 57f 48f
3:24 7 8 mph 1020.4mb 57f 48f
3:18 6
mph
1020.4mb 57f 47f
3:12 6 7 mph 1020.4mb 57f 47f
3:06 7 8 mph 1020.4mb 57f 47f
3:00 6 8 mph 1020.3mb 57f 47f
2:54 7 9 mph 1020.3mb 57f 47f
2:48 7 9 mph 1020.2mb 57f 47f
2:42 7 9 mph 1020.4mb 57f 47f
2:36 6 8 mph 1020.5mb 57f 48f
2:30 7 8 mph 1020.6mb 57f 49f
2:24 8 9 mph 1020.7mb 57f 49f
2:18 8 9 mph 1020.8mb 57f 49f
2:12 9 10 mph 1020.9mb 57f 49f
2:06 8 9 mph 1020.9mb 57f 48f
2:00 8 9 mph 1021mb 57f 48f
1:54 8 11 mph 1021.1mb 57f 49f
1:48 9 11 mph 1021.1mb 57f 48f
1:42 9 10 mph 1021.2mb 57f 48f
1:36 9 11 mph 1021.3mb 57f 49f
1:30 9
mph
1021.4mb 57f 49f
1:24 8 9 mph 1021.5mb 57f 49f
1:18 8 10 mph 1021.6mb 57f 49f
1:12 9 10 mph 1021.6mb 57f 49f
1:06 9 10 mph 1021.7mb 58f 49f
1:00 9
mph
1021.8mb 58f 49f
12:54 9
mph
1021.8mb 58f 49f
12:48 8 9 mph - - -
12:42 9
mph
1021.8mb 58f 49f
12:36 8 9 mph 1021.8mb 58f 49f
12:30 8 9 mph 1021.8mb 58f 50f
12:24 8 9 mph 1021.8mb 58f 50f
12:18 8 9 mph 1021.9mb 58f 50f
12:12 7 9 mph 1021.9mb 58f 50f
12:06 8 9 mph 1021.9mb 58f 50f
12:00 8 9 mph 1022mb 58f 50f
vie 02/24 11:54 8 9 mph 1022mb 58f 50f
11:48 8 9 mph 1022mb 58f 50f
11:42 8 9 mph 1021.9mb 58f 50f
11:36 8 9 mph 1021.9mb 58f 50f
11:30 8 9 mph 1022mb 58f 50f
11:24 9 10 mph 1021.9mb 58f 51f
11:18 8 9 mph 1022mb 58f 51f
11:12 8
mph
1022mb 58f 51f
11:06 7 8 mph 1021.9mb 58f 52f
11:00 7 9 mph 1022mb 58f 52f
10:54 8 9 mph 1022.1mb 58f 52f
10:48 7 8 mph 1022mb 58f -
10:42 7 9 mph 1022mb 58f -
10:36 7 9 mph 1022mb 58f -
10:30 8 9 mph 1021.9mb 58f 52f
10:24 8 9 mph 1021.9mb 58f 52f
10:18 7 9 mph - - -
10:12 8 9 mph 1021.8mb 58f 52f
10:06 8 9 mph 1021.9mb 58f 52f
10:00 7 9 mph 1021.9mb 58f 52f
9:54 7 9 mph 1021.9mb 58f 52f
9:48 8 9 mph 1021.9mb 58f 52f
9:42 8 10 mph 1021.9mb - -
9:36 8 9 mph 1021.8mb - -
9:30 7 9 mph 1021.9mb 58f 52f
9:24 8 9 mph 1021.9mb 58f 52f
9:18 7 8 mph 1021.9mb 58f 52f
9:12 7 9 mph 1021.9mb 58f 52f
9:06 6 8 mph 1021.8mb 58f 52f
9:00 8 9 mph 1021.7mb 58f 53f
8:54 8 9 mph 1021.7mb 58f 52f
8:48 7 9 mph 1021.7mb 58f 52f
8:42 7 8 mph 1021.7mb 58f 52f
8:36 6 7 mph 1021.6mb 58f 52f
8:30 6 8 mph 1021.6mb 58f 53f
8:24 6 8 mph 1021.6mb 58f 53f
8:18 6 7 mph 1021.4mb 58f 53f
8:12 6 7 mph 1021.5mb 58f 53f
8:06 5 6 mph 1021.5mb 58f 53f
8:00 5 6 mph 1021.5mb 58f 54f
7:54 3 5 mph 1021.4mb 58f 54f
7:48 2 3 mph - - -
7:42 1 2 mph 1021.4mb 58f 54f
7:36  -  3 mph 1021.4mb 58f 54f
7:30  -  6 mph 1021.4mb 58f 54f
7:24 1 6 mph 1021.4mb 58f 55f
7:18 3 6 mph 1021.3mb 58f 55f
7:12 3 8 mph 1021.3mb 58f 55f
7:06 7 8 mph 1021.2mb 58f 55f
7:00 8 9 mph 1021.1mb 58f 55f
6:54 8 10 mph 1021.1mb 58f 55f
6:48 9 10 mph 1021.1mb 58f 55f
6:42 10 11 mph 1021mb 58f 55f
6:36 9 10 mph 1021mb 58f 55f
6:30 9 11 mph 1021mb 58f 55f
6:24 11 13 mph 1021mb 58f 55f
6:18 11 13 mph - - -
6:12 11 13 mph 1020.9mb 58f 55f
6:06 11 14 mph 1020.9mb 58f 55f
6:00 13 14 mph 1020.9mb 58f 55f
5:54 13 15 mph 1020.8mb 58f 55f
5:48 14 15 mph - - -
5:42 15 16 mph 1020.8mb 59f 55f
5:36 15 16 mph 1020.9mb 59f 55f
5:30 15 16 mph 1020.8mb 59f 55f
5:24 14 17 mph 1020.8mb 59f 55f
5:18 14 16 mph - - -
5:12 16 17 mph 1020.8mb 58f 55f
5:06 15 17 mph 1020.8mb 58f 55f
5:00 15 17 mph 1020.8mb 58f 55f
4:54 17 18 mph 1020.8mb 58f 55f
4:48 16 18 mph - - -
4:42 16 18 mph 1020.7mb 58f 55f
4:36 17 18 mph 1020.7mb 59f 55f
4:30 16 18 mph 1020.8mb 59f 55f
4:24 16 18 mph 1020.8mb 58f 55f
4:18 16 18 mph - - -
4:12 15 17 mph 1020.7mb 58f 55f
4:06 16 17 mph 1020.7mb 58f 55f
4:00 16 18 mph 1020.7mb 58f 55f
3:54 16 20 mph 1020.7mb 58f 55f
3:48 16 18 mph - - -
3:42 17 20 mph 1020.6mb 58f 55f
3:36 16 18 mph 1020.6mb 58f 55f
3:30 17 18 mph 1020.7mb 58f 55f
3:24 16 18 mph 1020.7mb 58f 55f
3:18 14 17 mph 1020.7mb 58f 55f
3:12 16 17 mph 1020.8mb 58f 55f
3:06 15 16 mph 1020.8mb 58f 55f
3:00 14 15 mph 1020.8mb 58f 55f
2:54 14 15 mph 1020.8mb 58f 55f
2:48 13 14 mph 1020.8mb - -
2:42 13 14 mph 1020.8mb - 55f
2:36 11 15 mph 1020.7mb - 55f
2:30 13 15 mph 1020.8mb 58f 55f
2:24 13 15 mph 1020.8mb 58f 55f
2:18 14 15 mph - - -
2:12 13 15 mph 1020.9mb 58f 55f
2:06 13 15 mph 1020.9mb 58f 55f
2:00 14 15 mph 1021mb 58f 55f
1:54 13 14 mph 1021mb 58f 55f
1:48 14 15 mph - - -
1:42 13 15 mph 1021.2mb 58f 55f
1:36 14 16 mph 1021.2mb 58f 55f
1:30 13 15 mph 1021.2mb 58f 55f
1:24 13 15 mph 1021.2mb 58f 55f
1:18 13 15 mph 1021.3mb 58f 55f
1:12 11 14 mph 1021.3mb 58f 55f
1:06 10 13 mph 1021.3mb 58f 55f
1:00 11 13 mph 1021.4mb 58f 55f
12:54 10 11 mph 1021.4mb 58f 55f
12:48 10 11 mph 1021.5mb 58f 55f
12:42 10 11 mph 1021.6mb 58f 55f
12:36 11 13 mph 1021.8mb 58f 55f
12:30 13 14 mph 1021.9mb 58f 55f
12:24 10 13 mph 1022mb 58f 55f
12:18 11 13 mph 1022.1mb 58f 55f
12:12 10 11 mph 1022mb 58f 55f
12:06 9 10 mph 1022mb 58f 55f
12:00 8 10 mph 1022mb 58f 55f
11:54 9 11 mph 1022.1mb 58f 55f
11:48 8 9 mph 1022.2mb 58f 55f
11:42 8 9 mph 1022.2mb 58f 55f
11:36 9 10 mph 1022.3mb 58f 55f
11:30 8 11 mph 1022.4mb 58f 55f
11:24 9 10 mph 1022.4mb 58f 55f
11:18 10 11 mph 1022.3mb 58f 55f
11:12 9 10 mph 1022.3mb 57f 56f
11:06 9
mph
1022.3mb 57f 55f
11:00 6 7 mph 1022.1mb 57f 56f
10:54 3 6 mph 1022.1mb 57f 57f
10:48 5
mph
1022.2mb 57f 56f
10:42 3 6 mph 1022.3mb 57f 57f
10:36 2 7 mph 1022.3mb 57f 58f
10:30 2 7 mph 1022.5mb 57f 58f
10:24 1 5 mph 1022.5mb 57f 58f
10:18 5 13 mph 1022.5mb 57f 57f
10:12 11 13 mph 1022.4mb 57f 56f
10:06 6 13 mph 1022.5mb 57f 57f
10:00 6 10 mph 1022.5mb 57f 56f
9:54 8 10 mph 1022.5mb 57f 56f
9:48 5 11 mph 1022.6mb 57f 56f
9:42 7 14 mph 1022.6mb 57f 56f
9:36 11 15 mph 1022.5mb 57f 55f
9:30 8 14 mph 1022.6mb 57f 56f
9:24 13 15 mph 1022.7mb 57f 55f
9:18 10 15 mph 1022.6mb 57f 55f
9:12 8 15 mph 1022.6mb 57f 55f
9:06 11 16 mph 1022.6mb 57f 55f
9:00 6 9 mph 1022.6mb 57f 55f
8:54 2 7 mph 1022.6mb 57f 55f
8:48 7 10 mph 1022.6mb 57f 54f
8:42 8 13 mph 1022.4mb 57f 54f
8:36 8 16 mph 1022.4mb 57f 54f
8:30 10 14 mph 1022.3mb 57f 54f
8:24 6 8 mph 1022.3mb 57f 53f
8:18 3 9 mph 1022.4mb 57f 53f
8:12 7 9 mph 1022.3mb 57f 53f
8:06 8 11 mph 1022.3mb 57f 52f
8:00 8 10 mph 1022.1mb 57f 52f
7:54 3 5 mph 1022.1mb 57f 52f
7:48 3 6 mph 1022mb 57f 53f
7:42 2 5 mph 1021.8mb 57f 52f
7:36 2 3 mph 1021.8mb 57f 52f
7:30 1 6 mph 1021.7mb 57f 52f
7:24 5 6 mph 1021.6mb 57f 51f
7:12 3 9 mph 1021.4mb 57f 51f
7:06 7 13 mph 1021.3mb 57f 50f
7:00 9 18 mph 1021.1mb 57f 50f
6:54 11 17 mph 1021mb 57f 50f
6:48 14 20 mph - - -
6:42 17 22 mph 1020.7mb 57f 50f
6:36 13 22 mph 1020.7mb 57f 50f
6:30 9 17 mph 1020.6mb 57f 50f
6:24 9 16 mph 1020.6mb 57f 50f
6:18 10 18 mph - - -
6:12 10 14 mph 1020.4mb 57f 50f
6:06 9 16 mph 1020.4mb 57f 50f
6:00 9 16 mph 1020.3mb 57f 50f
5:54 14 20 mph 1020.2mb 57f 50f
5:48 11 15 mph 1020.2mb 57f 50f
5:42 11 18 mph 1020.1mb 57f 50f
5:36 11 16 mph 1020mb 57f 50f
5:30 11 15 mph 1020.1mb 57f 50f
5:24 11 17 mph 1020mb 57f 50f
5:18 13 17 mph 1020.1mb 57f 50f
5:12 11 16 mph 1020.1mb 57f 50f
5:06 9 15 mph 1020mb 57f 50f
5:00 9 14 mph 1019.9mb 57f 50f
4:54 9 14 mph 1019.9mb 57f 50f
4:48 8 14 mph 1019.8mb 57f 50f
4:42 11 21 mph 1019.8mb 57f 50f
4:36 15 20 mph 1019.7mb 57f 50f
4:30 11 16 mph 1019.7mb 57f 50f
4:24 14 20 mph 1019.7mb 57f 51f
4:18 10 20 mph 1019.8mb 57f 51f
4:12 14 18 mph 1019.8mb 57f 51f
4:06 15 22 mph 1019.8mb 57f 51f
4:00 13 21 mph 1019.8mb 57f 51f
3:54 13 17 mph 1019.9mb 57f 51f
3:48 13 18 mph 1019.8mb 57f 50f
3:42 14 20 mph 1019.9mb 57f 50f
3:36 15 21 mph 1019.9mb 57f 51f
3:30 14 20 mph 1019.9mb 57f 50f
3:24 15 22 mph 1019.8mb 57f 50f
3:18 17 22 mph 1019.8mb 57f 50f
3:12 16 23 mph 1019.7mb 57f 51f
3:06 15 23 mph 1019.6mb 57f 51f
3:00 16 21 mph 1019.6mb 57f 51f
2:54 14 22 mph 1019.6mb 57f 51f
2:48 15 23 mph 1019.6mb 57f 51f
2:42 18 25 mph 1019.6mb 57f 51f
2:36 20 26 mph 1019.7mb 57f 51f
2:30 18 26 mph 1019.7mb 57f 51f
2:24 18 26 mph 1019.7mb 57f 51f
2:18 17 26 mph 1019.7mb 57f 51f
2:12 16 25 mph 1019.8mb 57f 51f
2:06 15 24 mph 1020mb 57f 51f
2:00 16 29 mph 1020.1mb 57f 51f
1:54 15 25 mph 1020.1mb 57f 51f
1:48 18 25 mph 1020.1mb 57f 51f
1:42 18 24 mph 1020.1mb 57f 51f
1:36 16 23 mph 1020mb 57f 51f
1:30 14 24 mph 1020mb 57f 51f
1:24 16 22 mph 1020mb 57f 51f
1:18 14 20 mph 1020mb 57f 51f
1:12 14 21 mph 1019.9mb 57f 51f
1:06 15 21 mph 1019.9mb 57f 51f
1:00 13 21 mph 1019.8mb 57f 51f
12:54 16 22 mph 1019.8mb 57f 51f
12:48 16 23 mph 1019.8mb 57f 51f
12:42 16 26 mph 1019.8mb 57f 51f
12:36 16 23 mph 1019.7mb 57f 51f
12:30 16 25 mph 1019.7mb 57f 51f
12:24 16 22 mph 1019.8mb 57f 51f
12:18 14 22 mph 1019.8mb 57f 51f
12:12 14 22 mph 1019.7mb 57f 51f
12:06 13 24 mph 1019.8mb 57f 51f
12:00 14 22 mph 1019.8mb 57f 52f
jue 02/23 11:54 13 23 mph 1019.8mb 57f 51f
11:48 14 21 mph 1019.8mb 57f 51f
11:42 13 20 mph 1019.7mb 57f 51f
11:36 15 18 mph 1019.7mb 57f 51f
11:30 14 22 mph 1019.7mb 57f 51f
11:24 15 21 mph 1019.6mb 58f 51f
11:18 16 25 mph 1019.6mb 58f 51f
11:12 14 21 mph 1019.6mb 58f 51f
11:06 16 24 mph 1019.5mb 58f 51f
11:00 16 23 mph 1019.4mb 58f 51f
10:54 14 21 mph 1019.4mb 58f 51f
10:48 18 25 mph 1019.4mb 58f 51f
10:42 15 23 mph 1019.4mb 58f -
10:36 14 22 mph 1019.4mb 58f -
10:30 15 22 mph 1019.4mb 58f 51f
10:24 17 22 mph 1019.4mb 58f 51f
10:18 14 24 mph 1019.4mb 58f 51f
10:12 17 25 mph 1019.4mb 58f 51f
10:06 15 21 mph 1019.4mb 58f 51f
10:00 15 20 mph 1019.5mb 58f 51f
9:54 17 23 mph 1019.4mb 58f 51f
9:48 14 18 mph 1019.3mb 58f 51f
9:42 13 16 mph 1019.3mb 58f -
9:36 13 16 mph 1019.2mb 58f -
9:30 13 17 mph 1019.3mb 58f 51f
9:24 15 20 mph 1019.3mb 58f 52f
9:18 14 20 mph 1019.2mb 58f 52f
9:12 14 20 mph 1019.2mb 58f 52f
9:06 11 20 mph 1019.2mb 58f 52f
9:00 14 17 mph 1019.2mb 58f 52f
8:54 13 21 mph 1019.2mb 58f 52f
8:48 11 18 mph - - -
8:42 14 20 mph 1019.2mb 58f 52f
8:36 11 20 mph 1019.1mb 58f 52f
8:30 10 16 mph 1019.1mb 58f 52f
8:24 14 18 mph 1019.1mb 58f 52f
8:18 13 17 mph 1019mb 58f 52f
8:12 14 17 mph 1019mb 58f 53f
8:06 15 22 mph 1018.9mb 58f 53f
8:00 13 20 mph 1018.8mb 58f 53f
7:54 11 21 mph 1018.7mb 58f 53f
7:48 14 24 mph - - -
7:42 16 18 mph 1018.7mb 58f 53f
7:36 13 20 mph 1018.7mb 58f 53f
7:30 14 18 mph 1018.7mb 58f 53f
7:24 9 20 mph 1018.6mb 58f 53f
7:18 9 17 mph 1018.5mb 58f 54f
7:12 9 17 mph 1018.5mb 58f 54f
7:06 11 17 mph 1018.5mb 58f 54f
7:00 9 15 mph 1018.4mb 58f 54f
6:54 11 14 mph 1018.5mb 58f 54f
6:48 9 15 mph 1018.4mb 58f 54f
6:42 9 15 mph 1018.3mb 58f 55f
6:36 7 9 mph 1018.2mb 58f 55f
6:30 7 9 mph 1018.2mb 58f 55f
6:24 7 13 mph 1018.2mb 58f 55f
6:18 9 13 mph - - -
6:12 7 10 mph 1018.1mb 58f 56f
6:06 7 16 mph 1017.9mb 58f 57f
6:00 15 17 mph 1017.8mb 58f 56f
5:54 15 18 mph 1017.8mb 58f 56f
5:48 16 20 mph - - -
5:42 17 20 mph 1017.8mb 58f 56f
5:36 16 18 mph 1017.7mb 58f 56f
5:30 15 17 mph 1017.6mb 58f 56f
5:24 14 17 mph 1017.6mb 58f 56f
5:18 16 17 mph 1017.6mb 58f 56f
5:12 16 18 mph 1017.6mb 58f 56f
5:06 17 20 mph 1017.6mb 59f 56f
5:00 17 20 mph 1017.6mb 59f 56f
4:54 17 20 mph 1017.5mb 59f 56f
4:48 18 22 mph - - -
4:42 18 21 mph 1017.5mb 59f 56f
4:36 18 22 mph 1017.6mb 59f 56f
4:30 20 21 mph 1017.5mb 59f 56f
4:24 20 23 mph 1017.6mb 59f 56f
4:18 20 24 mph 1017.5mb 59f 56f
4:12 20 23 mph 1017.6mb 59f 56f
4:06 18 24 mph 1017.6mb 59f 56f
4:00 21 22 mph 1017.6mb 59f 56f
3:54 20 23 mph 1017.6mb 59f 56f
3:48 22 24 mph - - -
3:42 20 25 mph 1017.6mb 59f 55f
3:36 22 24 mph 1017.5mb 59f 55f
3:30 21 24 mph 1017.6mb 59f 55f
3:24 22 24 mph 1017.6mb 59f 55f
3:18 20 23 mph - - -
3:12 22 24 mph 1017.6mb 59f 55f
3:06 21 23 mph 1017.7mb 59f 55f
3:00 21 23 mph 1017.6mb 59f 55f
2:54 20 22 mph 1017.6mb 59f 55f
2:48 20 22 mph 1017.7mb 59f 55f
2:42 20 22 mph 1017.6mb 59f 55f
2:36 18 20 mph 1017.7mb 59f 55f
2:30 17 21 mph 1017.7mb 59f 55f
2:24 18 21 mph 1017.8mb 59f 54f
2:18 20 22 mph - - -
2:12 21 22 mph 1017.7mb 59f 54f
2:06 20 22 mph 1017.7mb 59f 54f
2:00 20 22 mph 1017.6mb 59f 54f
1:54 20 22 mph 1017.7mb 59f 54f
1:48 18 21 mph - - -
1:42 16 18 mph 1017.9mb 58f 54f
1:36 17 18 mph 1017.9mb 58f 54f
1:30 14 16 mph 1017.9mb 58f 54f
1:24 10 17 mph 1018mb 58f 54f
1:18 16 18 mph 1018.2mb 59f 54f
1:12 15 17 mph 1018.2mb 59f 54f
1:06 16 20 mph 1018.1mb 58f 53f
1:00 15 17 mph 1018.2mb 58f 54f
12:54 13 17 mph 1018.3mb 58f 54f
12:48 11 15 mph 1018.4mb 58f 54f
12:42 10 17 mph 1018.5mb 58f 55f
12:36 9 17 mph 1018.7mb 58f 56f
12:30 13 23 mph 1018.7mb 58f 56f
12:24 14 21 mph 1018.7mb 58f 56f
12:18 14 20 mph - - -
12:12 14 25 mph 1018.9mb 58f 56f
12:06 16 22 mph 1018.9mb 58f 56f
12:00 10 24 mph 1018.9mb 58f 56f
11:54 18 23 mph 1019mb 58f 56f
11:48 18 28 mph 1019mb 58f 56f
11:42 17 22 mph 1019.1mb 58f 56f
11:36 14 18 mph 1019.2mb 58f 56f
11:30 14 22 mph 1019.3mb 58f 56f
11:24 16 22 mph 1019.3mb 58f 55f
11:18 16 23 mph 1019.3mb 58f 55f
11:12 14 22 mph 1019.4mb 58f 55f
11:06 17 24 mph 1019.5mb 58f 55f
11:00 20 24 mph 1019.5mb 58f 55f
10:54 15 25 mph 1019.5mb 58f 55f
10:48 17 26 mph 1019.6mb 58f 55f
10:42 10 20 mph 1019.7mb 58f 55f
10:36 14 21 mph 1019.7mb 58f 54f
10:30 14 22 mph 1019.7mb 58f 55f
10:24 17 22 mph 1019.7mb 58f 54f
10:18 14 25 mph 1019.8mb 58f 54f
10:12 16 24 mph 1019.7mb 58f 54f
10:06 15 25 mph 1019.8mb 58f 54f
10:00 18 23 mph 1019.8mb 58f 54f
9:54 18 23 mph 1019.7mb 58f 54f
9:48 21 29 mph 1019.7mb 58f 53f
9:42 21 26 mph 1019.6mb 58f 53f
9:36 16 26 mph 1019.6mb 58f 53f
9:30 18 28 mph 1019.6mb 58f 53f
9:24 20 28 mph 1019.6mb 58f 52f
9:18 17 22 mph 1019.6mb 58f 53f
9:12 18 26 mph 1019.6mb 58f 52f
9:06 22 28 mph 1019.6mb 58f 52f
9:00 20 26 mph 1019.6mb 58f 52f
8:48 15 22 mph 1019.7mb 58f 52f
8:42 18 25 mph 1019.7mb 58f 51f
8:36 15 25 mph 1019.7mb 58f 51f
8:30 16 25 mph 1019.7mb 58f 51f
8:18 13 28 mph 1019.7mb 58f 51f
8:12 14 26 mph 1019.6mb 58f 51f
8:06 13 22 mph 1019.7mb 58f 51f
8:00 15 30 mph 1019.6mb 58f 51f
7:48 11 22 mph 1019.6mb 58f 51f
7:42 17 26 mph 1019.6mb 58f 50f
7:36 13 22 mph 1019.5mb 58f 50f
7:30 15 21 mph 1019.5mb 58f 50f
7:18 11 20 mph 1019.4mb 58f 50f
7:12 11 16 mph 1019.3mb 58f 50f
7:00 14 18 mph 1019.2mb 58f 50f
6:54 14 23 mph 1019mb 58f 50f
6:48 7 16 mph 1019mb 58f 49f
6:42 13 17 mph 1019mb 58f 49f
6:36 13 16 mph 1019mb 58f 49f
6:30 10 18 mph 1018.9mb 58f 49f
6:24 11 17 mph 1018.9mb 58f 49f
6:18 10 17 mph 1018.9mb 58f 49f
6:12 9 16 mph 1018.9mb 58f 49f
6:06 10 17 mph 1018.8mb 58f 50f
6:00 10 21 mph 1018.7mb 58f 50f
5:54 10 15 mph 1018.6mb 58f 50f
5:48 13 17 mph 1018.6mb 58f 50f
5:42 17 28 mph 1018.6mb 58f 50f
5:36 11 30 mph 1018.3mb 58f 50f
5:30 14 24 mph 1018.2mb 58f 50f
5:24 18 26 mph 1018.1mb 58f 50f
5:18 16 25 mph 1018mb 58f 50f
5:12 15 31 mph 1018mb 58f 50f
5:06 15 23 mph 1018mb 58f 50f
5:00 16 28 mph 1017.9mb 58f 50f
4:54 16 24 mph 1017.8mb 58f 50f
4:48 16 23 mph 1017.7mb 58f 50f
4:42 16 23 mph 1017.6mb 58f 50f
4:36 16 24 mph 1017.5mb 58f 51f
4:30 11 28 mph 1017.5mb 58f 51f
4:24 21 29 mph 1017.5mb 58f 51f
4:18 16 24 mph - - -
4:12 17 25 mph 1017.4mb 58f 51f
4:06 17 24 mph 1017.4mb 58f 51f
4:00 20 24 mph 1017.4mb 58f 51f
3:54 16 28 mph 1017.4mb 58f 51f
3:48 14 28 mph 1017.3mb 58f 51f
3:42 17 25 mph 1017.3mb 58f 51f
3:36 17 23 mph 1017.4mb 58f 51f
3:30 16 28 mph 1017.4mb 58f 51f
3:24 10 23 mph 1017.5mb 59f 52f
3:18 11 24 mph 1017.4mb 59f 52f
3:12 11 20 mph 1017.4mb 59f 52f
3:06 10 30 mph 1017.5mb 59f 52f
3:00 11 26 mph 1017.6mb 59f 52f
2:54 9 26 mph 1017.6mb 59f 52f
2:48 7 22 mph 1017.7mb 59f 52f
2:42 13 26 mph 1017.6mb 58f 52f
2:36 14 21 mph 1017.7mb 58f 52f
2:30 14 22 mph 1017.8mb 59f 53f
2:24 11 16 mph 1017.9mb 58f 52f
2:18 9 14 mph 1018mb 58f 52f
2:12 9 11 mph 1018.1mb 58f 52f
2:06 8 11 mph 1018.2mb 58f 52f
2:00 10 13 mph 1018.2mb 58f 52f
1:54 8 13 mph 1018.2mb 58f 53f
1:48 10 13 mph 1018.3mb 58f 53f
12:54 7 9 mph 1018.4mb 59f 54f
12:48 6 9 mph - - -
mié 02/22 11:54 9 17 mph 1018.6mb 59f 55f
11:48 11 18 mph 1018.6mb 59f 54f
10:54 7 11 mph 1018.5mb 59f 55f
10:48 8 18 mph 1018.6mb 59f 56f
9:54 8 15 mph 1018.6mb 59f 56f
9:48 8 13 mph 1018.5mb 59f 56f
8:54 15 21 mph 1018mb 59f 57f
8:48 10 20 mph 1018mb 59f 57f
7:54 7 11 mph 1017.5mb 59f 59f
7:48 5 9 mph - - -
6:54 10 15 mph 1017.2mb 59f 60f
6:48 7 10 mph 1017.2mb 59f 60f
5:54 14 15 mph 1016.8mb 60f 60f
5:48 13 15 mph 1016.8mb 60f 60f
4:54 22 23 mph 1016.7mb 60f 59f